timestamp,wind_dir_avg,wind_spd_avg,wind_spd_max_dir,wind_spd_gust,battery_voltage,lat,long
2022-08-20 00:04:00+00:00,238.0,7.59,234.0,8.79,12.49,47.59359,-54.27349
2022-08-20 00:14:01+00:00,234.0,6.74,234.0,7.94,12.49,47.59359,-54.27349
2022-08-20 00:24:01+00:00,239.0,6.85,246.0,7.95,12.49,47.59359,-54.27349
2022-08-20 00:34:01+00:00,230.0,6.24,231.0,7.28,12.49,47.59359,-54.27349
2022-08-20 00:44:01+00:00,233.0,7.52,238.0,8.71,12.49,47.59359,-54.27349
2022-08-20 00:54:01+00:00,229.0,6.89,224.0,7.86,12.49,47.59359,-54.27349
2022-08-20 01:04:01+00:00,228.0,6.96,230.0,8.87,12.49,47.59359,-54.27349
2022-08-20 01:14:01+00:00,230.0,7.46,237.0,8.72,12.49,47.59359,-54.27349
2022-08-20 01:24:01+00:00,228.0,7.92,230.0,9.0,12.49,47.59359,-54.27349
2022-08-20 01:34:01+00:00,230.0,7.67,227.0,9.25,12.49,47.59359,-54.27349
2022-08-20 01:44:01+00:00,232.0,7.31,233.0,8.99,12.49,47.59359,-54.27349
2022-08-20 01:54:01+00:00,226.0,7.58,222.0,8.8,12.49,47.59359,-54.27349
2022-08-20 02:04:01+00:00,234.0,6.81,240.0,7.64,12.49,47.59359,-54.27349
2022-08-20 02:14:01+00:00,230.0,6.48,230.0,7.46,12.41,47.59359,-54.27349
2022-08-20 02:24:01+00:00,231.0,6.33,233.0,7.4,12.41,47.59359,-54.27349
2022-08-20 02:34:01+00:00,230.0,6.06,226.0,6.85,12.41,47.59359,-54.27349
2022-08-20 02:44:01+00:00,230.0,6.86,233.0,8.05,12.41,47.59359,-54.27349
2022-08-20 02:54:01+00:00,228.0,6.85,223.0,8.37,12.41,47.59359,-54.27349
2022-08-20 03:04:01+00:00,232.0,6.89,243.0,8.18,12.41,47.59359,-54.27349
2022-08-20 03:14:00+00:00,238.0,7.64,238.0,8.84,12.41,47.59359,-54.27349
2022-08-20 03:24:00+00:00,239.0,8.87,249.0,11.83,12.41,47.59359,-54.27349
2022-08-20 03:34:00+00:00,242.0,8.45,237.0,11.45,12.41,47.59359,-54.27349
2022-08-20 03:44:00+00:00,246.0,8.91,252.0,12.02,12.41,47.59359,-54.27349
2022-08-20 03:54:00+00:00,246.0,8.86,251.0,12.42,12.41,47.59359,-54.27349
2022-08-20 04:04:00+00:00,249.0,9.27,253.0,12.8,12.41,47.59359,-54.27349
2022-08-20 04:14:00+00:00,242.0,8.68,244.0,10.41,12.41,47.59359,-54.27349
2022-08-20 04:24:00+00:00,242.0,8.63,243.0,9.82,12.41,47.59359,-54.27349
2022-08-20 04:34:00+00:00,243.0,8.65,240.0,9.78,12.41,47.59359,-54.27349
2022-08-20 04:44:00+00:00,242.0,8.28,246.0,9.34,12.41,47.59359,-54.27349
2022-08-20 04:54:00+00:00,244.0,7.99,247.0,9.0,12.41,47.59359,-54.27349
2022-08-20 05:04:00+00:00,242.0,8.37,240.0,9.31,12.41,47.59359,-54.27349
2022-08-20 05:14:00+00:00,244.0,8.5,248.0,9.41,12.41,47.59359,-54.27349
2022-08-20 05:24:00+00:00,241.0,8.47,241.0,9.96,12.41,47.59359,-54.27349
2022-08-20 05:34:00+00:00,250.0,7.15,250.0,8.32,12.41,47.59359,-54.27349
2022-08-20 05:44:00+00:00,251.0,6.53,256.0,7.56,12.41,47.59359,-54.27349
2022-08-20 05:54:00+00:00,259.0,8.1,265.0,8.85,12.41,47.59359,-54.27349
2022-08-20 06:04:00+00:00,256.0,8.12,253.0,9.02,12.41,47.59359,-54.27349
2022-08-20 06:14:01+00:00,255.0,7.64,256.0,8.48,12.41,47.59359,-54.27349
2022-08-20 06:24:01+00:00,238.0,6.19,246.0,7.34,12.41,47.59359,-54.27349
2022-08-20 06:34:01+00:00,247.0,6.32,249.0,7.41,12.41,47.59359,-54.27349
2022-08-20 06:44:01+00:00,238.0,6.11,240.0,6.78,12.41,47.59359,-54.27349
2022-08-20 06:54:01+00:00,235.0,6.3,238.0,7.44,12.41,47.59359,-54.27349
2022-08-20 07:04:01+00:00,242.0,7.09,243.0,8.0,12.41,47.59359,-54.27349
2022-08-20 07:14:01+00:00,247.0,7.2,243.0,8.06,12.33,47.59359,-54.27349
2022-08-20 07:24:01+00:00,249.0,7.49,249.0,8.07,12.33,47.59359,-54.27349
2022-08-20 07:34:01+00:00,242.0,7.86,238.0,9.11,12.33,47.59359,-54.27349
2022-08-20 07:44:01+00:00,243.0,7.92,239.0,8.95,12.33,47.59359,-54.27349
2022-08-20 07:54:01+00:00,244.0,7.96,246.0,9.24,12.33,47.59359,-54.27349
2022-08-20 08:04:01+00:00,239.0,7.55,238.0,8.52,12.33,47.59359,-54.27349
2022-08-20 08:14:01+00:00,238.0,7.47,241.0,8.41,12.33,47.59359,-54.27349
2022-08-20 08:24:01+00:00,243.0,6.02,244.0,7.06,12.33,47.59359,-54.27349
2022-08-20 08:34:01+00:00,248.0,6.89,247.0,7.57,12.33,47.59359,-54.27349
2022-08-20 08:44:01+00:00,254.0,6.62,251.0,7.73,12.33,47.59359,-54.27349
2022-08-20 08:54:01+00:00,262.0,8.12,266.0,9.73,12.33,47.59359,-54.27349
2022-08-20 09:04:01+00:00,249.0,6.16,249.0,7.14,12.33,47.59359,-54.27349
2022-08-20 09:14:01+00:00,251.0,7.2,249.0,8.11,12.33,47.59359,-54.27349
2022-08-20 09:24:01+00:00,261.0,8.34,264.0,9.58,12.33,47.59359,-54.27349
2022-08-20 09:34:01+00:00,258.0,7.68,259.0,8.2,12.33,47.59359,-54.27349
2022-08-20 09:44:01+00:00,247.0,6.37,246.0,7.95,12.33,47.59359,-54.27349
2022-08-20 09:54:01+00:00,253.0,7.99,253.0,8.35,12.33,47.59359,-54.27349
2022-08-20 10:04:01+00:00,262.0,8.29,263.0,9.55,12.33,47.59359,-54.27349
2022-08-20 10:14:00+00:00,261.0,6.99,263.0,7.59,12.89,47.59359,-54.27349
2022-08-20 10:24:00+00:00,253.0,6.7,250.0,7.37,12.89,47.59359,-54.27349
2022-08-20 10:34:00+00:00,251.0,5.72,253.0,6.72,12.89,47.59359,-54.27349
2022-08-20 10:44:00+00:00,259.0,6.11,260.0,6.6,12.89,47.59359,-54.27349
2022-08-20 10:54:00+00:00,254.0,6.7,254.0,7.48,12.89,47.59359,-54.27349
2022-08-20 11:04:00+00:00,249.0,6.63,252.0,7.89,12.89,47.59359,-54.27349
2022-08-20 11:14:01+00:00,258.0,7.63,257.0,8.15,13.29,47.59359,-54.27349
2022-08-20 11:24:01+00:00,259.0,5.32,259.0,5.76,13.29,47.59359,-54.27349
2022-08-20 11:34:01+00:00,260.0,6.56,260.0,7.81,13.29,47.59359,-54.27349
2022-08-20 11:44:01+00:00,258.0,7.34,253.0,8.11,13.29,47.59359,-54.27349
2022-08-20 11:54:01+00:00,260.0,8.2,261.0,9.1,13.29,47.59359,-54.27349
2022-08-20 12:04:01+00:00,267.0,7.3,265.0,8.5,13.29,47.59359,-54.27349
2022-08-20 12:14:00+00:00,262.0,7.32,266.0,7.65,14.16,47.59359,-54.27349
2022-08-20 12:24:00+00:00,269.0,7.81,269.0,8.48,14.16,47.59359,-54.27349
2022-08-20 12:34:00+00:00,269.0,8.06,269.0,8.96,14.16,47.59359,-54.27349
2022-08-20 12:44:00+00:00,271.0,7.27,273.0,7.8,14.16,47.59359,-54.27349
2022-08-20 12:54:00+00:00,276.0,8.1,275.0,8.77,14.16,47.59359,-54.27349
2022-08-20 13:04:00+00:00,270.0,7.06,270.0,7.88,14.16,47.59359,-54.27349
2022-08-20 13:14:01+00:00,272.0,7.83,273.0,8.44,14.0,47.59359,-54.27349
2022-08-20 13:24:01+00:00,269.0,7.12,271.0,7.81,14.0,47.59359,-54.27349
2022-08-20 13:34:01+00:00,268.0,7.69,275.0,8.87,14.0,47.59359,-54.27349
2022-08-20 13:44:01+00:00,262.0,6.98,262.0,7.5,14.0,47.59359,-54.27349
2022-08-20 13:54:01+00:00,268.0,7.95,267.0,8.68,14.0,47.59359,-54.27349
2022-08-20 14:04:01+00:00,259.0,4.74,261.0,5.44,14.0,47.59359,-54.27349
2022-08-20 14:14:01+00:00,265.0,5.97,264.0,6.46,13.84,47.59359,-54.27349
2022-08-20 14:24:01+00:00,263.0,5.58,266.0,6.0,13.84,47.59359,-54.27349
2022-08-20 14:34:01+00:00,260.0,5.09,261.0,5.68,13.84,47.59359,-54.27349
2022-08-20 14:44:01+00:00,265.0,4.91,269.0,5.56,13.84,47.59359,-54.27349
2022-08-20 14:54:01+00:00,257.0,4.69,258.0,6.16,13.84,47.59359,-54.27349
2022-08-20 15:04:01+00:00,267.0,4.13,270.0,4.54,13.84,47.59359,-54.27349
2022-08-20 15:14:00+00:00,243.0,3.45,242.0,3.7,13.68,47.59359,-54.27349
2022-08-20 15:24:00+00:00,231.0,2.98,240.0,3.89,13.68,47.59359,-54.27349
2022-08-20 15:34:00+00:00,248.0,4.66,253.0,6.73,13.68,47.59359,-54.27349
2022-08-20 15:44:00+00:00,193.0,3.96,203.0,4.39,13.68,47.59359,-54.27349
2022-08-20 15:54:00+00:00,225.0,4.05,244.0,6.25,13.68,47.59359,-54.27349
2022-08-20 16:04:00+00:00,244.0,4.13,251.0,6.04,13.68,47.59359,-54.27349
2022-08-20 16:14:01+00:00,251.0,6.33,251.0,6.82,13.84,47.59359,-54.27349
2022-08-20 16:24:01+00:00,187.0,3.57,187.0,3.89,13.84,47.59359,-54.27349
2022-08-20 16:34:01+00:00,193.0,3.0,194.0,3.17,13.84,47.59359,-54.27349
2022-08-20 16:44:01+00:00,194.0,3.64,200.0,3.78,13.84,47.59359,-54.27349
2022-08-20 16:54:01+00:00,184.0,4.53,185.0,4.8,13.84,47.59359,-54.27349
2022-08-20 17:04:01+00:00,182.0,4.22,184.0,4.75,13.84,47.59359,-54.27349
2022-08-20 17:14:00+00:00,205.0,5.66,219.0,6.5,13.53,47.59359,-54.27349
2022-08-20 17:24:00+00:00,211.0,7.12,223.0,7.98,13.53,47.59359,-54.27349
2022-08-20 17:34:00+00:00,228.0,6.15,236.0,7.59,13.53,47.59359,-54.27349
2022-08-20 17:44:00+00:00,215.0,4.97,235.0,6.39,13.53,47.59359,-54.27349
2022-08-20 17:54:00+00:00,212.0,2.34,215.0,2.76,13.53,47.59359,-54.27349
2022-08-20 18:04:00+00:00,7.0,5.96,2.0,6.7,13.53,47.59359,-54.27349
2022-08-20 18:14:01+00:00,43.0,5.18,54.0,6.53,13.29,47.59359,-54.27349
2022-08-20 18:24:01+00:00,28.0,3.51,34.0,4.02,13.29,47.59359,-54.27349
2022-08-20 18:34:01+00:00,45.0,3.12,47.0,3.64,13.29,47.59359,-54.27349
2022-08-20 18:44:01+00:00,60.0,2.13,75.0,4.14,13.29,47.59359,-54.27349
2022-08-20 18:54:01+00:00,36.0,1.03,28.0,1.52,13.29,47.59359,-54.27349
2022-08-20 19:04:01+00:00,188.0,0.51,220.0,0.76,13.29,47.59359,-54.27349
2022-08-20 19:14:00+00:00,188.0,1.98,187.0,2.09,13.68,47.59359,-54.27349
2022-08-20 19:24:00+00:00,236.0,3.96,244.0,5.4,13.68,47.59359,-54.27349
2022-08-20 19:34:00+00:00,172.0,1.99,173.0,2.27,13.68,47.59359,-54.27349
2022-08-20 19:44:00+00:00,165.0,2.85,169.0,3.12,13.68,47.59359,-54.27349
2022-08-20 19:54:00+00:00,178.0,2.49,178.0,2.86,13.68,47.59359,-54.27349
2022-08-20 20:04:00+00:00,160.0,2.42,161.0,2.53,13.68,47.59359,-54.27349
2022-08-20 20:14:01+00:00,176.0,1.93,179.0,2.17,13.6,47.59359,-54.27349
2022-08-20 20:24:01+00:00,187.0,2.22,189.0,2.37,13.6,47.59359,-54.27349
2022-08-20 20:34:01+00:00,291.0,2.07,290.0,3.18,13.6,47.59359,-54.27349
2022-08-20 20:44:01+00:00,235.0,3.04,236.0,3.37,13.6,47.59359,-54.27349
2022-08-20 20:54:01+00:00,227.0,3.29,236.0,4.11,13.6,47.59359,-54.27349
2022-08-20 21:04:01+00:00,219.0,2.81,224.0,3.01,13.6,47.59359,-54.27349
2022-08-20 21:14:00+00:00,223.0,2.59,225.0,2.77,13.21,47.59359,-54.27349
2022-08-20 21:24:00+00:00,222.0,2.15,221.0,2.38,13.21,47.59359,-54.27349
2022-08-20 21:34:00+00:00,45.0,1.08,43.0,1.65,13.21,47.59359,-54.27349
2022-08-20 21:44:00+00:00,105.0,2.38,105.0,2.82,13.21,47.59359,-54.27349
2022-08-20 21:54:00+00:00,96.0,1.31,91.0,1.48,13.21,47.59359,-54.27349
2022-08-20 22:04:00+00:00,40.0,1.31,42.0,1.51,13.21,47.59359,-54.27349
2022-08-20 22:14:00+00:00,57.0,2.16,52.0,2.39,12.73,47.59359,-54.27349
2022-08-20 22:24:00+00:00,49.0,3.36,51.0,3.87,12.73,47.59359,-54.27349
2022-08-20 22:34:00+00:00,44.0,6.01,42.0,7.02,12.73,47.59359,-54.27349
2022-08-20 22:44:00+00:00,64.0,5.42,59.0,6.4,12.73,47.59359,-54.27349
2022-08-20 22:54:00+00:00,78.0,4.08,74.0,5.52,12.73,47.59359,-54.27349
2022-08-20 23:04:00+00:00,90.0,3.7,129.0,6.17,12.73,47.59359,-54.27349
2022-08-20 23:14:01+00:00,70.0,5.18,70.0,7.61,12.41,47.59359,-54.27349
2022-08-20 23:24:01+00:00,82.0,5.26,84.0,7.04,12.41,47.59359,-54.27349
2022-08-20 23:34:01+00:00,74.0,6.42,66.0,7.99,12.41,47.59359,-54.27349
2022-08-20 23:44:01+00:00,72.0,6.89,73.0,7.63,12.41,47.59359,-54.27349
2022-08-20 23:54:01+00:00,70.0,6.76,72.0,7.43,12.41,47.59359,-54.27349
